Weather Roundup
Issued by NWS Springfield, MO

Home | Current Version | Previous Version | Text Only | Print | Product List | Glossary On
Versions: 1 2 3 4 5 6 7 8 9 10 11 12 13 14 15 16 17 18 19 20 21 22 23 24 25 26 27 28 29 30 31 32 33 34 35 36 37 38 39 40 41 42 43 44 45 46 47 48 49 50
000
NZUS99 KSGF 241359
HRRSGF

HOURLY WEATHER
NATIONAL WEATHER SERVICE SPRINGFIELD MO
900 AM CDT THU APR 24 2014

......SGF CWA......

CITY           SKY/WX    TMP DP  RH WIND       PRES   REMARKS
SPRINGFIELD    PTSUNNY   63  43  48 S18       29.72R
JOPLIN         CLOUDY    65  54  67 S18       29.68F
WEST PLAINS    PTSUNNY   63  39  41 SE15G25   29.79F
ROLLA          PTSUNNY   62  38  40 S13       29.76F
OSAGE BEACH    PTSUNNY   64  37  36 S12G22    29.72F

......SURROUNDING SGF CWA......

CITY           SKY/WX    TMP DP  RH WIND       PRES   REMARKS
CHANUTE        CLOUDY    66  60  81 SW9       29.65R
PARSONS        PTSUNNY   69  59  70 S13G21    29.65F
COFFEYVILLE    PTSUNNY   68  61  78 S16       29.65F
EMPORIA        CLOUDY    57  55  93 NE10      29.64S
SILOAM SPRINGS PTSUNNY   63  50  63 S32G39    29.78R
HARRISON AR    CLOUDY    68  52  56 SW12G22   29.80R
NEAR YELLVILLE PTSUNNY   66  39  37 S7G18     29.78R

......KANSAS AND MISSOURI......

CITY           SKY/WX    TMP DP  RH WIND       PRES   REMARKS
KANSAS CTY INT RAIN      57  55  93 NE5       29.68R FOG
DOWNTOWN KC    LGT RAIN  59  54  83 VRB3      29.66R
COLUMBIA       CLOUDY    60  38  43 SE12      29.74S
SEDALIA        CLOUDY    63  46  54 S5        29.73R
ST JOSEPH      RAIN      58  55  90 E9        29.67R FOG
ST LOUIS       PTSUNNY   61  35  37 SE20G25   29.84F
SPIRIT OF STL  PTSUNNY   60  35  39 SE10G24   29.80F
KIRKSVILLE     CLOUDY    58  39  49 SE17      29.73F
WICHITA        TSTM      57  53  86 NW24G30   29.73R
TOPEKA         CLOUDY    59  56  89 NE9       29.65F
OLATHE         LGT RAIN  56  54  93 SE8       29.65F FOG

......TENNESSEE......

CITY           SKY/WX    TMP DP  RH WIND       PRES   REMARKS
MEMPHIS        CLOUDY    66  41  40 S10       29.92F
NASHVILLE      MOSUNNY   57  41  55 VRB3      30.01S

......ARKANSAS.......

CITY           SKY/WX    TMP DP  RH WIND       PRES   REMARKS
FAYETTEVILLE   PTSUNNY   64  54  69 SW17      29.82R
FT SMITH       TSTM      63  54  72 NW13      29.84R
LITTLE ROCK    PTSUNNY   64  49  57 S12       29.84F

......OKLAHOMA.......

CITY           SKY/WX    TMP DP  RH WIND       PRES   REMARKS
TULSA          CLOUDY    68  62  81 S26G37    29.66R
PONCA CITY     CLOUDY    69  61  75 SW8       29.64R
MCALESTER      CLOUDY    65  60  84 SE9G21    29.75R
OKLAHOMA CITY  CLOUDY    69  62  78 S10       29.68R

......IOWA............

CITY           SKY/WX    TMP DP  RH WIND       PRES   REMARKS
DES MOINES     TSTM      52  46  80 SW12      29.70R
QUAD CITIES    PTSUNNY   53  39  59 SE17      29.81F

......ILLINOIS........

CITY           SKY/WX    TMP DP  RH WIND       PRES   REMARKS
QUINCY         MOSUNNY   58  37  45 SE17G24   29.78F
CHICAGO        CLOUDY    50  36  58 SE15      29.97F



USA.gov is the U.S. government's official web portal to all federal, state and local government web resources and services.